,,Stat5,,Stat1,,Stat2,,Stat3,,Stat4,,Wind1,,Wind1,
time,status,PA1M_AVG,status,PR1M_SUM,status,RH1M_AVG,status,SR1M_AVG,status,TA1M_AVG,status,W1dAve1m,status,W1sAve1m,
2002-07-06, 00:00:00,VALID,919.248,VALID,0,VALID,94.877,VALID,0,VALID,18.481,VALID,76,VALID,0.963742,
2002-07-06, 00:01:00,VALID,919.232,VALID,0,VALID,95.6488,VALID,0,VALID,18.5361,VALID,71,VALID,0.802684,
2002-07-06, 00:02:00,VALID,919.232,VALID,0,VALID,95.3017,VALID,0,VALID,18.5428,VALID,91,VALID,0.49308,
2002-07-06, 00:03:00,VALID,919.243,VALID,0,VALID,95.4441,VALID,0,VALID,18.5327,VALID,109,VALID,0.231971,
2002-07-06, 00:04:00,VALID,919.233,VALID,0,VALID,95.2292,VALID,0.0339617,VALID,18.5232,VALID,109,VALID,0.186198,
2002-07-06, 00:05:00,VALID,919.214,VALID,0,VALID,95.0385,VALID,0.0339617,VALID,18.472,VALID,109,VALID,0.358929,
2002-07-06, 00:06:00,VALID,919.197,VALID,0,VALID,95.6018,VALID,0.0169808,VALID,18.4911,VALID,108,VALID,0.449424,
2002-07-06, 00:07:00,VALID,919.183,VALID,0,VALID,95.5878,VALID,0.0169808,VALID,18.4844,VALID,105,VALID,0.376786,
2002-07-06, 00:08:00,VALID,919.163,VALID,0,VALID,95.9095,VALID,0.0169808,VALID,18.5036,VALID,106,VALID,0.460938,
2002-07-06, 00:09:00,VALID,919.156,VALID,0,VALID,95.8307,VALID,0.0339617,VALID,18.5068,VALID,97,VALID,0.806858,
2002-07-06, 00:10:00,VALID,919.14,VALID,0,VALID,96.085,VALID,0.0509425,VALID,18.5167,VALID,83,VALID,0.912543,
2002-07-06, 00:11:00,VALID,919.117,VALID,0,VALID,95.982,VALID,0,VALID,18.5227,VALID,84,VALID,0.844351,
2002-07-06, 00:12:00,VALID,919.115,VALID,0,VALID,95.8243,VALID,0.0169808,VALID,18.5299,VALID,88,VALID,0.892411,
2002-07-06, 00:13:00,VALID,919.132,VALID,0,VALID,95.6806,VALID,0.0339617,VALID,18.5202,VALID,88,VALID,0.261613,
2002-07-06, 00:14:00,VALID,919.157,VALID,0,VALID,95.6565,VALID,0,VALID,18.5107,VALID,88,VALID,0.0988839,
2002-07-06, 00:15:00,VALID,919.16,VALID,0,VALID,95.3894,VALID,-0.0169808,VALID,18.4879,VALID,93,VALID,0.194878,
2002-07-06, 00:16:00,VALID,919.163,VALID,0,VALID,95.4326,VALID,0,VALID,18.472,VALID,124,VALID,0.654247,
2002-07-06, 00:17:00,VALID,919.164,VALID,0,VALID,95.6755,VALID,0,VALID,18.481,VALID,114,VALID,0.41183,
2002-07-06, 00:18:00,VALID,919.156,VALID,0,VALID,95.0613,VALID,-0.0339617,VALID,18.4468,VALID,58,VALID,0.363176,
2002-07-06, 00:19:00,VALID,919.146,VALID,0,VALID,94.999,VALID,-0.0679233,VALID,18.4019,VALID,58,VALID,0.0140625,
2002-07-06, 00:20:00,VALID,919.123,VALID,0,VALID,95.3029,VALID,-0.101885,VALID,18.4019,VALID,58,VALID,0,
2002-07-06, 00:21:00,VALID,919.108,VALID,0,VALID,95.5407,VALID,-0.0509425,VALID,18.4379,VALID,58,VALID,0,
2002-07-06, 00:22:00,VALID,919.119,VALID,0,VALID,95.5929,VALID,-0.0679233,VALID,18.46,VALID,58,VALID,0.0609809,
2002-07-06, 00:23:00,VALID,919.104,VALID,0,VALID,95.837,VALID,-0.0849042,VALID,18.4923,VALID,65,VALID,0.156661,
2002-07-06, 00:24:00,VALID,919.084,VALID,0,VALID,95.8955,VALID,-0.0849042,VALID,18.5149,VALID,100,VALID,0.414497,
2002-07-06, 00:25:00,VALID,919.074,VALID,0,VALID,95.8828,VALID,-0.101885,VALID,18.5537,VALID,100,VALID,0.206163,
2002-07-06, 00:26:00,VALID,919.062,VALID,0,VALID,95.6285,VALID,-0.0679233,VALID,18.5634,VALID,100,VALID,0.198518,
2002-07-06, 00:27:00,VALID,919.048,VALID,0,VALID,95.7518,VALID,-0.0509425,VALID,18.5534,VALID,100,VALID,0.381473,
2002-07-06, 00:28:00,VALID,919.051,VALID,0,VALID,95.982,VALID,-0.0509425,VALID,18.5728,VALID,100,VALID,0.319046,
2002-07-06, 00:29:00,VALID,919.024,VALID,0,VALID,96.1257,VALID,-0.0679233,VALID,18.5954,VALID,97,VALID,0.515848,
2002-07-06, 00:30:00,VALID,919.004,VALID,0,VALID,95.603,VALID,-0.0849042,VALID,18.6086,VALID,59,VALID,0.340278,
2002-07-06, 00:31:00,VALID,919.001,VALID,0,VALID,95.2788,VALID,-0.0849042,VALID,18.5659,VALID,52,VALID,0.00320513,
2002-07-06, 00:32:00,VALID,918.997,VALID,0,VALID,95.3004,VALID,-0.0849042,VALID,18.5698,VALID,52,VALID,0.0589286,
2002-07-06, 00:33:00,VALID,918.965,VALID,0,VALID,95.3475,VALID,-0.0169808,VALID,18.5783,VALID,56,VALID,0.294975,
2002-07-06, 00:34:00,VALID,918.942,VALID,0,VALID,95.2966,VALID,0.0169808,VALID,18.5878,VALID,73,VALID,0.251339,
2002-07-06, 00:35:00,VALID,918.915,VALID,0,VALID,95.3398,VALID,0.0169808,VALID,18.5744,VALID,73,VALID,0.184679,
2002-07-06, 00:36:00,VALID,918.892,VALID,0,VALID,95.294,VALID,0.0169808,VALID,18.5744,VALID,76,VALID,0.214193,
2002-07-06, 00:37:00,VALID,918.89,VALID,0,VALID,95.2241,VALID,0,VALID,18.5753,VALID,90,VALID,0.159505,
2002-07-06, 00:38:00,VALID,918.885,VALID,0,VALID,95.3297,VALID,0.0339617,VALID,18.5649,VALID,90,VALID,0,
2002-07-06, 00:39:00,VALID,918.901,VALID,0,VALID,95.4759,VALID,0,VALID,18.5811,VALID,90,VALID,0.0284288,
2002-07-06, 00:40:00,VALID,918.874,VALID,0,VALID,95.4365,VALID,0.0169808,VALID,18.6009,VALID,91,VALID,0.201172,
2002-07-06, 00:41:00,VALID,918.85,VALID,0,VALID,95.3754,VALID,0.0509425,VALID,18.6067,VALID,111,VALID,0.160457,
2002-07-06, 00:42:00,VALID,918.833,VALID,0,VALID,95.3818,VALID,0.0169808,VALID,18.6199,VALID,119,VALID,0.0765625,
2002-07-06, 00:43:00,VALID,918.802,VALID,0,VALID,95.2915,VALID,0,VALID,18.6457,VALID,123,VALID,0.215583,
2002-07-06, 00:44:00,VALID,918.805,VALID,0,VALID,95.1745,VALID,0.0509425,VALID,18.6625,VALID,43,VALID,0.334821,
2002-07-06, 00:45:00,VALID,918.813,VALID,0,VALID,95.1211,VALID,0.0169808,VALID,18.6683,VALID,129,VALID,0.171224,
2002-07-06, 00:46:00,VALID,918.794,VALID,0,VALID,95.1059,VALID,0,VALID,18.6588,VALID,130,VALID,0.280849,
2002-07-06, 00:47:00,VALID,918.793,VALID,0,VALID,95.0257,VALID,0.0169808,VALID,18.6688,VALID,128,VALID,0.291518,
2002-07-06, 00:48:00,VALID,918.782,VALID,0,VALID,95.0702,VALID,-0.0339617,VALID,18.669,VALID,37,VALID,0.129012,
2002-07-06, 00:49:00,VALID,918.77,VALID,0,VALID,95.1415,VALID,-0.101885,VALID,18.6727,VALID,73,VALID,0.220313,
2002-07-06, 00:50:00,VALID,918.744,VALID,0,VALID,95.1198,VALID,-0.0849042,VALID,18.6896,VALID,116,VALID,0.141059,
2002-07-06, 00:51:00,VALID,918.74,VALID,0,VALID,95.13,VALID,-0.101885,VALID,18.6955,VALID,123,VALID,0.284288,
2002-07-06, 00:52:00,VALID,918.713,VALID,0,VALID,95.0105,VALID,-0.0849042,VALID,18.7184,VALID,85,VALID,0.209635,
2002-07-06, 00:53:00,VALID,918.707,VALID,0,VALID,94.7905,VALID,-0.0679233,VALID,18.7244,VALID,12,VALID,0.333676,
2002-07-06, 00:54:00,VALID,918.682,VALID,0,VALID,94.7867,VALID,-0.0509425,VALID,18.7375,VALID,44,VALID,0.157552,
2002-07-06, 00:55:00,VALID,918.682,VALID,0,VALID,94.7218,VALID,-0.0679233,VALID,18.7405,VALID,79,VALID,0.112196,
2002-07-06, 00:56:00,VALID,918.647,VALID,0,VALID,94.498,VALID,-0.0679233,VALID,18.7567,VALID,81,VALID,0.0869391,
2002-07-06, 00:57:00,VALID,918.633,VALID,0,VALID,94.4026,VALID,-0.101885,VALID,18.7629,VALID,90,VALID,0.262946,
2002-07-06, 00:58:00,VALID,918.595,VALID,0,VALID,94.292,VALID,-0.0679233,VALID,18.7825,VALID,97,VALID,0.247466,
2002-07-06, 00:59:00,VALID,918.59,VALID,0,VALID,94.1127,VALID,-0.0849042,VALID,18.8277,VALID,29,VALID,0.414732,
2002-07-06, 01:00:00,VALID,918.572,VALID,0,VALID,93.8164,VALID,-0.101885,VALID,18.8864,VALID,32,VALID,0.0681424,
2002-07-06, 01:01:00,VALID,918.575,VALID,0,VALID,93.5736,VALID,-0.0509425,VALID,18.9212,VALID,64,VALID,0.111979,
2002-07-06, 01:02:00,VALID,918.559,VALID,0,VALID,93.3142,VALID,-0.101885,VALID,18.9371,VALID,80,VALID,0.282589,
2002-07-06, 01:03:00,VALID,918.53,VALID,0,VALID,93.1845,VALID,-0.0339617,VALID,18.9662,VALID,83,VALID,0.303209,
2002-07-06, 01:04:00,VALID,918.517,VALID,0,VALID,93.0942,VALID,0.0339617,VALID,18.9851,VALID,83,VALID,0.0866071,
2002-07-06, 01:05:00,VALID,918.5,VALID,0,VALID,93.0726,VALID,0.0509425,VALID,18.9846,VALID,83,VALID,0.0078125,
2002-07-06, 01:06:00,VALID,918.467,VALID,0,VALID,92.9734,VALID,0.0169808,VALID,19.0044,VALID,83,VALID,0.172743,
2002-07-06, 01:07:00,VALID,918.466,VALID,0,VALID,92.7852,VALID,0,VALID,19.0102,VALID,83,VALID,0.0199653,
2002-07-06, 01:08:00,VALID,918.447,VALID,0,VALID,92.6758,VALID,0,VALID,19.0072,VALID,75,VALID,0.219161,
2002-07-06, 01:09:00,VALID,918.439,VALID,0,VALID,92.6873,VALID,0.0169808,VALID,18.9555,VALID,46,VALID,0.341146,
2002-07-06, 01:10:00,VALID,918.431,VALID,0,VALID,92.9187,VALID,0,VALID,18.9398,VALID,46,VALID,0.36697,
2002-07-06, 01:11:00,VALID,918.407,VALID,0,VALID,92.9696,VALID,0,VALID,18.9269,VALID,55,VALID,0.439704,
2002-07-06, 01:12:00,VALID,918.397,VALID,0,VALID,92.9403,VALID,0,VALID,18.9041,VALID,47,VALID,0.44308,
2002-07-06, 01:13:00,VALID,918.386,VALID,0,VALID,92.7712,VALID,0,VALID,18.8616,VALID,42,VALID,0.565034,
2002-07-06, 01:14:00,VALID,918.377,VALID,0,VALID,93.0408,VALID,0,VALID,18.8199,VALID,42,VALID,0.590848,
2002-07-06, 01:15:00,VALID,918.371,VALID,0,VALID,93.3129,VALID,0,VALID,18.833,VALID,37,VALID,0.654514,
2002-07-06, 01:16:00,VALID,918.359,VALID,0,VALID,93.2277,VALID,0,VALID,18.836,VALID,41,VALID,0.497196,
2002-07-06, 01:17:00,VALID,918.35,VALID,0,VALID,92.9301,VALID,0,VALID,18.8452,VALID,41,VALID,0.275,
2002-07-06, 01:18:00,VALID,918.357,VALID,0,VALID,92.7992,VALID,0,VALID,18.8162,VALID,41,VALID,0.269215,
2002-07-06, 01:19:00,VALID,918.359,VALID,0,VALID,92.8627,VALID,0,VALID,18.8328,VALID,41,VALID,0.391295,
2002-07-06, 01:20:00,VALID,918.351,VALID,0,VALID,92.7432,VALID,0.0509425,VALID,18.8425,VALID,41,VALID,0.311415,
2002-07-06, 01:21:00,VALID,918.349,VALID,0,VALID,92.733,VALID,0.0169808,VALID,18.8586,VALID,41,VALID,0.163845,
2002-07-06, 01:22:00,VALID,918.339,VALID,0,VALID,92.5219,VALID,0.0169808,VALID,18.9073,VALID,41,VALID,0.431207,
2002-07-06, 01:23:00,VALID,918.316,VALID,0,VALID,91.9853,VALID,0,VALID,18.959,VALID,54,VALID,0.432566,
2002-07-06, 01:24:00,VALID,918.325,VALID,0,VALID,91.6649,VALID,0.0509425,VALID,18.9814,VALID,65,VALID,0.252821,
2002-07-06, 01:25:00,VALID,918.324,VALID,0,VALID,91.6356,VALID,-0.0169808,VALID,18.9555,VALID,65,VALID,0.0950521,
2002-07-06, 01:26:00,VALID,918.329,VALID,0,VALID,91.9154,VALID,-0.0169808,VALID,18.9232,VALID,60,VALID,0.382212,
2002-07-06, 01:27:00,VALID,918.325,VALID,0,VALID,92.0705,VALID,0,VALID,18.9068,VALID,52,VALID,0.4625,
2002-07-06, 01:28:00,VALID,918.296,VALID,0,VALID,91.8836,VALID,-0.0169808,VALID,18.8907,VALID,52,VALID,0.826225,
2002-07-06, 01:29:00,VALID,918.277,VALID,0,VALID,91.8315,VALID,0,VALID,18.8492,VALID,49,VALID,0.879464,
2002-07-06, 01:30:00,VALID,918.279,VALID,0,VALID,92.204,VALID,0.0339617,VALID,18.8328,VALID,38,VALID,0.945964,
2002-07-06, 01:31:00,VALID,918.267,VALID,0,VALID,91.9116,VALID,0,VALID,18.9008,VALID,31,VALID,0.890224,
2002-07-06, 01:32:00,VALID,918.263,VALID,0,VALID,91.4182,VALID,0,VALID,18.9818,VALID,24,VALID,0.445089,
2002-07-06, 01:33:00,VALID,918.245,VALID,0,VALID,90.9693,VALID,-0.0169808,VALID,19.0372,VALID,12,VALID,0.33277,
2002-07-06, 01:34:00,VALID,918.214,VALID,0,VALID,90.4111,VALID,-0.0509425,VALID,19.0148,VALID,44,VALID,0.38192,
2002-07-06, 01:35:00,VALID,918.175,VALID,0,VALID,90.9591,VALID,-0.0849042,VALID,18.9957,VALID,66,VALID,0.417752,
2002-07-06, 01:36:00,VALID,918.167,VALID,0,VALID,91.0456,VALID,-0.0509425,VALID,19.0084,VALID,66,VALID,0.162109,
2002-07-06, 01:37:00,VALID,918.164,VALID,0,VALID,91.0889,VALID,-0.0339617,VALID,19.0121,VALID,61,VALID,0.266927,
2002-07-06, 01:38:00,VALID,918.169,VALID,0,VALID,90.9973,VALID,-0.0339617,VALID,19.0183,VALID,60,VALID,0.00596217,
2002-07-06, 01:39:00,VALID,918.182,VALID,0,VALID,90.9693,VALID,-0.0169808,VALID,19.0245,VALID,26,VALID,0.108941,
2002-07-06, 01:40:00,VALID,918.193,VALID,0,VALID,90.8752,VALID,-0.0849042,VALID,19.0442,VALID,328,VALID,0.0568576,
2002-07-06, 01:41:00,VALID,918.194,VALID,0,VALID,90.8383,VALID,-0.0849042,VALID,19.0573,VALID,342,VALID,0.226162,
2002-07-06, 01:42:00,VALID,918.192,VALID,0,VALID,90.7163,VALID,-0.0339617,VALID,19.0889,VALID,346,VALID,0,
2002-07-06, 01:43:00,VALID,918.176,VALID,0,VALID,90.5319,VALID,-0.0169808,VALID,19.1147,VALID,13,VALID,0.0916385,
2002-07-06, 01:44:00,VALID,918.16,VALID,0,VALID,90.4569,VALID,-0.0169808,VALID,19.154,VALID,44,VALID,0.503795,
2002-07-06, 01:45:00,VALID,918.144,VALID,0,VALID,90.0957,VALID,-0.0169808,VALID,19.1957,VALID,46,VALID,0.181424,
2002-07-06, 01:46:00,VALID,918.139,VALID,0,VALID,90.1199,VALID,-0.0339617,VALID,19.1987,VALID,63,VALID,0.170072,
2002-07-06, 01:47:00,VALID,918.115,VALID,0,VALID,90.4645,VALID,-0.0339617,VALID,19.1729,VALID,131,VALID,0.41183,
2002-07-06, 01:48:00,VALID,918.11,VALID,0,VALID,90.79,VALID,-0.0339617,VALID,19.1475,VALID,128,VALID,0.239654,
2002-07-06, 01:49:00,VALID,918.101,VALID,0,VALID,90.9452,VALID,-0.0339617,VALID,19.1311,VALID,127,VALID,0.210268,
2002-07-06, 01:50:00,VALID,918.077,VALID,0,VALID,91.0113,VALID,-0.0509425,VALID,19.1314,VALID,127,VALID,0.33572,
2002-07-06, 01:51:00,VALID,918.042,VALID,0,VALID,91.0647,VALID,-0.0849042,VALID,19.1604,VALID,121,VALID,0.312717,
2002-07-06, 01:52:00,VALID,918.01,VALID,0,VALID,91.1893,VALID,-0.0339617,VALID,19.157,VALID,107,VALID,0.233073,
2002-07-06, 01:53:00,VALID,918.007,VALID,0,VALID,91.2109,VALID,-0.0169808,VALID,19.1798,VALID,107,VALID,0.257813,
2002-07-06, 01:54:00,VALID,918.016,VALID,0,VALID,91.2669,VALID,-0.0169808,VALID,19.196,VALID,107,VALID,0.177083,
2002-07-06, 01:55:00,VALID,918.018,VALID,0,VALID,91.291,VALID,-0.0509425,VALID,19.2089,VALID,107,VALID,0.0499132,
2002-07-06, 01:56:00,VALID,918.028,VALID,0,VALID,91.3419,VALID,-0.0679233,VALID,19.2221,VALID,107,VALID,0.0883413,
2002-07-06, 01:57:00,VALID,918.048,VALID,0,VALID,91.4093,VALID,0,VALID,19.2251,VALID,107,VALID,0,
2002-07-06, 01:58:00,VALID,918.056,VALID,0,VALID,91.4983,VALID,-0.0169808,VALID,19.2188,VALID,84,VALID,0.139358,
2002-07-06, 01:59:00,VALID,918.071,VALID,0,VALID,91.2732,VALID,-0.0849042,VALID,19.2315,VALID,49,VALID,0.0245536,
2002-07-06, 02:00:00,VALID,918.079,VALID,0,VALID,91.3063,VALID,-0.0849042,VALID,19.2571,VALID,65,VALID,0.191189,
2002-07-06, 02:01:00,VALID,918.082,VALID,0,VALID,91.2008,VALID,-0.0339617,VALID,19.283,VALID,69,VALID,0.0380609,
2002-07-06, 02:02:00,VALID,918.068,VALID,0,VALID,90.7938,VALID,-0.0339617,VALID,19.3056,VALID,69,VALID,0.00267857,
2002-07-06, 02:03:00,VALID,918.061,VALID,0,VALID,90.5586,VALID,-0.0509425,VALID,19.3441,VALID,69,VALID,0.0143581,
2002-07-06, 02:04:00,VALID,918.065,VALID,0,VALID,90.1529,VALID,-0.0169808,VALID,19.3829,VALID,69,VALID,0.0957589,
2002-07-06, 02:05:00,VALID,918.079,VALID,0,VALID,90.0932,VALID,-0.0509425,VALID,19.4606,VALID,67,VALID,0.0644531,
2002-07-06, 02:06:00,VALID,918.077,VALID,0,VALID,90.1415,VALID,-0.0679233,VALID,19.5158,VALID,67,VALID,0.00130208,
2002-07-06, 02:07:00,VALID,918.081,VALID,0,VALID,90.2331,VALID,-0.0679233,VALID,19.5382,VALID,67,VALID,0,
2002-07-06, 02:08:00,VALID,918.073,VALID,0,VALID,90.0042,VALID,-0.0339617,VALID,19.5481,VALID,67,VALID,0.136924,
2002-07-06, 02:09:00,VALID,918.063,VALID,0,VALID,90.2191,VALID,-0.0339617,VALID,19.5645,VALID,67,VALID,0.0822483,
2002-07-06, 02:10:00,VALID,918.063,VALID,0,VALID,90.7455,VALID,0,VALID,19.5638,VALID,37,VALID,0.438802,
2002-07-06, 02:11:00,VALID,918.065,VALID,0,VALID,90.8422,VALID,0,VALID,19.525,VALID,28,VALID,0.380609,
2002-07-06, 02:12:00,VALID,918.065,VALID,0,VALID,91.1448,VALID,-0.0169808,VALID,19.4795,VALID,28,VALID,0,
2002-07-06, 02:13:00,VALID,918.061,VALID,0,VALID,91.2287,VALID,-0.0169808,VALID,19.4574,VALID,28,VALID,0.174831,
2002-07-06, 02:14:00,VALID,918.061,VALID,0,VALID,90.9579,VALID,-0.0169808,VALID,19.4373,VALID,28,VALID,0.420089,
2002-07-06, 02:15:00,VALID,918.059,VALID,0,VALID,90.8638,VALID,-0.0339617,VALID,19.4278,VALID,26,VALID,0.203125,
2002-07-06, 02:16:00,VALID,918.054,VALID,0,VALID,91.0952,VALID,0,VALID,19.4442,VALID,26,VALID,0.0252404,
2002-07-06, 02:17:00,VALID,918.035,VALID,0,VALID,91.0443,VALID,0,VALID,19.4467,VALID,26,VALID,0.233705,
2002-07-06, 02:18:00,VALID,918.027,VALID,0,VALID,91.4004,VALID,-0.0339617,VALID,19.4405,VALID,26,VALID,0.125845,
2002-07-06, 02:19:00,VALID,918.018,VALID,0,VALID,91.5403,VALID,0,VALID,19.4348,VALID,26,VALID,0.00647321,
2002-07-06, 02:20:00,VALID,918.004,VALID,0,VALID,91.4322,VALID,0,VALID,19.4276,VALID,27,VALID,0.406467,
2002-07-06, 02:21:00,VALID,917.995,VALID,0,VALID,91.408,VALID,-0.0169808,VALID,19.444,VALID,29,VALID,0.0123698,
2002-07-06, 02:22:00,VALID,917.997,VALID,0,VALID,91.4068,VALID,0,VALID,19.4403,VALID,29,VALID,0,
2002-07-06, 02:23:00,VALID,918.007,VALID,0,VALID,91.7653,VALID,0,VALID,19.4763,VALID,29,VALID,0.0170641,
2002-07-06, 02:24:00,VALID,917.99,VALID,0,VALID,92.1468,VALID,-0.0509425,VALID,19.4823,VALID,29,VALID,0.262587,
2002-07-06, 02:25:00,VALID,918.006,VALID,0,VALID,92.2994,VALID,-0.0169808,VALID,19.5091,VALID,29,VALID,0.0759549,
2002-07-06, 02:26:00,VALID,918.012,VALID,0,VALID,92.3363,VALID,0,VALID,19.4892,VALID,29,VALID,0.000200321,
2002-07-06, 02:27:00,VALID,918.007,VALID,0,VALID,92.1176,VALID,-0.0169808,VALID,19.4599,VALID,28,VALID,0.927679,
2002-07-06, 02:28:00,VALID,917.976,VALID,0,VALID,92.2193,VALID,0,VALID,19.4115,VALID,27,VALID,0.951647,
2002-07-06, 02:29:00,VALID,917.976,VALID,0,VALID,92.5423,VALID,-0.0169808,VALID,19.3531,VALID,5,VALID,0.734152,
2002-07-06, 02:30:00,VALID,917.969,VALID,0,VALID,92.6491,VALID,0,VALID,19.3342,VALID,313,VALID,0.0262587,
2002-07-06, 02:31:00,VALID,917.955,VALID,0,VALID,92.6313,VALID,-0.0339617,VALID,19.3337,VALID,13,VALID,0.410457,
2002-07-06, 02:32:00,VALID,917.923,VALID,0,VALID,92.6758,VALID,-0.0679233,VALID,19.3724,VALID,20,VALID,0.87567,
2002-07-06, 02:33:00,VALID,917.92,VALID,0,VALID,92.6084,VALID,-0.0509425,VALID,19.4045,VALID,13,VALID,0.445313,
2002-07-06, 02:34:00,VALID,917.907,VALID,0,VALID,92.1812,VALID,-0.101885,VALID,19.4152,VALID,16,VALID,0.775893,
2002-07-06, 02:35:00,VALID,917.905,VALID,0,VALID,92.1583,VALID,-0.101885,VALID,19.4149,VALID,13,VALID,0.450738,
2002-07-06, 02:36:00,VALID,917.91,VALID,0,VALID,92.1239,VALID,-0.0849042,VALID,19.4244,VALID,25,VALID,0.208116,
2002-07-06, 02:37:00,VALID,917.902,VALID,0,VALID,92.2397,VALID,-0.0679233,VALID,19.4602,VALID,18,VALID,0.746528,
2002-07-06, 02:38:00,VALID,917.897,VALID,0,VALID,92.0515,VALID,-0.0339617,VALID,19.4696,VALID,11,VALID,0.911184,
2002-07-06, 02:39:00,VALID,917.907,VALID,0,VALID,91.862,VALID,-0.0849042,VALID,19.4701,VALID,4,VALID,0.292318,
2002-07-06, 02:40:00,VALID,917.904,VALID,0,VALID,91.689,VALID,-0.0849042,VALID,19.4694,VALID,11,VALID,0.373264,
2002-07-06, 02:41:00,VALID,917.911,VALID,0,VALID,91.9154,VALID,-0.0509425,VALID,19.4858,VALID,23,VALID,0.602163,
2002-07-06, 02:42:00,VALID,917.91,VALID,0,VALID,92.1494,VALID,-0.0849042,VALID,19.5054,VALID,24,VALID,0.864509,
2002-07-06, 02:43:00,VALID,917.885,VALID,0,VALID,92.1341,VALID,-0.0849042,VALID,19.4895,VALID,293,VALID,0.30152,
2002-07-06, 02:44:00,VALID,917.916,VALID,0,VALID,91.8976,VALID,-0.0849042,VALID,19.4761,VALID,8,VALID,1.14554,
2002-07-06, 02:45:00,VALID,917.907,VALID,0,VALID,91.7501,VALID,-0.0849042,VALID,19.4763,VALID,14,VALID,0.797526,
2002-07-06, 02:46:00,VALID,917.893,VALID,0,VALID,91.8645,VALID,-0.0849042,VALID,19.4723,VALID,17,VALID,0.796474,
2002-07-06, 02:47:00,VALID,917.887,VALID,0,VALID,91.806,VALID,-0.0849042,VALID,19.4855,VALID,17,VALID,0.582366,
2002-07-06, 02:48:00,VALID,917.868,VALID,0,VALID,91.6191,VALID,-0.0849042,VALID,19.492,VALID,20,VALID,0.470439,
2002-07-06, 02:49:00,VALID,917.854,VALID,0,VALID,91.8874,VALID,-0.0679233,VALID,19.5054,VALID,10,VALID,0.779018,
2002-07-06, 02:50:00,VALID,917.848,VALID,0,VALID,92.1875,VALID,-0.0679233,VALID,19.5017,VALID,19,VALID,1.24219,
2002-07-06, 02:51:00,VALID,917.816,VALID,0,VALID,92.5258,VALID,-0.118866,VALID,19.4987,VALID,17,VALID,1.28082,
2002-07-06, 02:52:00,VALID,917.822,VALID,0,VALID,92.4075,VALID,-0.101885,VALID,19.4887,VALID,360,VALID,0.352648,
2002-07-06, 02:53:00,VALID,917.813,VALID,0,VALID,92.4635,VALID,-0.101885,VALID,19.5151,VALID,356,VALID,0.742393,
2002-07-06, 02:54:00,VALID,917.784,VALID,0,VALID,92.1901,VALID,-0.0339617,VALID,19.489,VALID,33,VALID,0.385851,
2002-07-06, 02:55:00,VALID,917.77,VALID,0,VALID,91.8658,VALID,-0.0679233,VALID,19.4761,VALID,51,VALID,0.763455,
2002-07-06, 02:56:00,VALID,917.768,VALID,0,VALID,91.8836,VALID,-0.0509425,VALID,19.4922,VALID,33,VALID,0.369391,
2002-07-06, 02:57:00,VALID,917.792,VALID,0,VALID,92.2638,VALID,-0.0339617,VALID,19.5049,VALID,41,VALID,0.294643,
2002-07-06, 02:58:00,VALID,917.802,VALID,0,VALID,92.3159,VALID,-0.0679233,VALID,19.5084,VALID,65,VALID,0.162373,
2002-07-06, 02:59:00,VALID,917.808,VALID,0,VALID,92.3172,VALID,-0.101885,VALID,19.4853,VALID,53,VALID,0.417188,
2002-07-06, 03:00:00,VALID,917.813,VALID,0,VALID,92.218,VALID,-0.0509425,VALID,19.4952,VALID,266,VALID,1.29427,
2002-07-06, 03:01:00,VALID,917.805,VALID,0,VALID,91.4474,VALID,-0.101885,VALID,19.5407,VALID,359,VALID,1.00601,
2002-07-06, 03:02:00,VALID,917.814,VALID,0,VALID,91.2554,VALID,-0.0849042,VALID,19.5762,VALID,198,VALID,0.658929,
2002-07-06, 03:03:00,VALID,917.846,VALID,0,VALID,91.1486,VALID,-0.0509425,VALID,19.5812,VALID,319,VALID,0.544975,
2002-07-06, 03:04:00,VALID,917.871,VALID,0,VALID,91.3648,VALID,0,VALID,19.5941,VALID,20,VALID,0.258036,
2002-07-06, 03:05:00,VALID,917.863,VALID,0,VALID,91.6445,VALID,0.0339617,VALID,19.6162,VALID,310,VALID,0.585938,
2002-07-06, 03:06:00,VALID,917.891,VALID,0,VALID,91.9561,VALID,0,VALID,19.6257,VALID,352,VALID,0.681424,
2002-07-06, 03:07:00,VALID,917.88,VALID,0,VALID,91.0825,VALID,0.0339617,VALID,19.6105,VALID,345,VALID,1.03798,
2002-07-06, 03:08:00,VALID,917.868,VALID,0,VALID,91.6585,VALID,0.0509425,VALID,19.6299,VALID,351,VALID,0.603002,
2002-07-06, 03:09:00,VALID,917.859,VALID,0,VALID,91.9866,VALID,0.0339617,VALID,19.5874,VALID,33,VALID,0.876736,
2002-07-06, 03:10:00,VALID,917.847,VALID,0,VALID,92.1977,VALID,0.0339617,VALID,19.5583,VALID,360,VALID,1.12174,
2002-07-06, 03:11:00,VALID,917.845,VALID,0,VALID,92.7877,VALID,0.0169808,VALID,19.5419,VALID,184,VALID,0.327724,
2002-07-06, 03:12:00,VALID,917.867,VALID,0,VALID,92.775,VALID,0.0339617,VALID,19.5034,VALID,170,VALID,0.372545,
2002-07-06, 03:13:00,VALID,917.85,VALID,0,VALID,93.1145,VALID,0.0169808,VALID,19.4773,VALID,97,VALID,0.903505,
2002-07-06, 03:14:00,VALID,917.857,VALID,0,VALID,93.5609,VALID,0.0169808,VALID,19.491,VALID,349,VALID,0.537723,
2002-07-06, 03:15:00,VALID,917.832,VALID,0,VALID,93.646,VALID,0.0169808,VALID,19.4647,VALID,15,VALID,0.410373,
2002-07-06, 03:16:00,VALID,917.823,VALID,0,VALID,93.6282,VALID,0,VALID,19.4366,VALID,223,VALID,0.647436,
2002-07-06, 03:17:00,VALID,917.8,VALID,0,VALID,93.9194,VALID,0.0339617,VALID,19.4194,VALID,326,VALID,0.608482,
2002-07-06, 03:18:00,VALID,917.819,VALID,0,VALID,94.2348,VALID,-0.0339617,VALID,19.4199,VALID,19,VALID,1.16132,
2002-07-06, 03:19:00,VALID,917.802,VALID,0,VALID,94.5057,VALID,-0.0849042,VALID,19.4075,VALID,26,VALID,0.910714,
2002-07-06, 03:20:00,VALID,917.796,VALID,0,VALID,94.7663,VALID,-0.101885,VALID,19.4047,VALID,15,VALID,1.56576,
2002-07-06, 03:21:00,VALID,917.791,VALID,0,VALID,94.9952,VALID,-0.0169808,VALID,19.3883,VALID,22,VALID,2.03711,
2002-07-06, 03:22:00,VALID,917.797,VALID,0,VALID,95.1554,VALID,-0.0509425,VALID,19.3657,VALID,19,VALID,1.77365,
2002-07-06, 03:23:00,VALID,917.798,VALID,0,VALID,95.2445,VALID,-0.101885,VALID,19.3595,VALID,13,VALID,1.29955,
2002-07-06, 03:24:00,VALID,917.812,VALID,0,VALID,95.4148,VALID,-0.0679233,VALID,19.3533,VALID,20,VALID,1.28906,
2002-07-06, 03:25:00,VALID,917.791,VALID,0,VALID,95.5941,VALID,-0.0849042,VALID,19.3603,VALID,21,VALID,1.41298,
2002-07-06, 03:26:00,VALID,917.764,VALID,0,VALID,95.6692,VALID,-0.0339617,VALID,19.3337,VALID,20,VALID,1.57792,
2002-07-06, 03:27:00,VALID,917.737,VALID,0,VALID,95.7327,VALID,-0.0509425,VALID,19.3145,VALID,19,VALID,1.32098,
2002-07-06, 03:28:00,VALID,917.73,VALID,0,VALID,95.8167,VALID,-0.0849042,VALID,19.3046,VALID,17,VALID,0.898226,
2002-07-06, 03:29:00,VALID,917.728,VALID,0,VALID,95.8714,VALID,-0.0679233,VALID,19.2919,VALID,12,VALID,0.269643,
2002-07-06, 03:30:00,VALID,917.732,VALID,0,VALID,95.912,VALID,-0.0849042,VALID,19.3021,VALID,14,VALID,0.669271,
2002-07-06, 03:31:00,VALID,917.715,VALID,0,VALID,95.968,VALID,-0.101885,VALID,19.2949,VALID,14,VALID,1.08934,
2002-07-06, 03:32:00,VALID,917.711,VALID,0,VALID,95.9883,VALID,-0.0679233,VALID,19.2889,VALID,1,VALID,0.575893,